STARLINK-5409, 54859

Orbit data source: Space-Track

STARLINK-5409, 54859 is a payload satellite owned by SpaceX/Seattle (US) in LEO that was launched on Wed, 28 Dec 2022 UTC via an FALCON 9 launch vehicle from the Air Force Eastern Test Range (AFETR). Payload-class satellites include a variety of spacecraft equipped with specific instruments for various scientific and technological missions. These include communications satellites like Starlink; space stations such as the ISS; scientific satellites like the Hubble; Earth observation satellites from companies like Planet Labs, Umbra, and HawkEye 360; GPS; miniature CubeSats for education and research; and military/defense satellites.

Loading next visibility...
Identifier
54859, 2022-177AR
Orbit
LEO
Country
Flag of USUS
Related business
Manufacturer
SpaceX/Seattle
Mission
Operational Commercial Communications
Bus & Motor
STARLINK, Unknown motor
Mass
305 kg wet, ~290 kg dry
Launch date (UTC)
2022-12-28 (3 years ago)
Launch vehicle
FALCON 9
Launch site
Air Force Eastern Test Range (AFETR)
Object type
Payload
Rocket body
Debris
Shape & HBR
Box + 1 Pan, 10.1 m
Radar Cross Section
13.562 m², Large (>1 m²)

Expand to show TLE details & history
Last TLE update: 2 days ago

TLE from 2 days ago
0 STARLINK-5409
1 54859U 22177AR  26171.43962382  .00000870  00000-0  41154-4 0  9998
2 54859  43.0046 261.4115 0001857 278.0450  82.0191 15.27575100192801
Epoch: 2026-06-20T10:33Z
TLE epoch observation values (Epoch: 2026-06-20T10:33:03.498Z)
Latitude
Longitude
-165.5073°
Altitude
482.663 km
Speed
7.626 km/s
True Right ascension
17h 25m 38s
True Declination
0° 00' 00"
Sunlit
Object was in full shadow at epoch
Visualization orbit readout
Latitude
Unknown
Longitude
Unknown
Altitude
Unknown
Speed
Unknown
Apparent Right ascension
Unknown
Apparent Declination
Unknown
Sunlit
N/A
Visualization observer readout
Local Sidereal Time
21:24:24
Azimuth
Unknown
Elevation
Unknown
Doppler factor
Unknown
Orbital elements
Apogee altitude
486.283 km
Perigee altitude
483.734 km
Semi-major axis
6,863.145 km
Eccentricity
0.00019
Inclination
43.0046°
RAAN
261.4115°
Arg. of periapsis
278.045°
True anomaly
82.04017°
Mean anomaly
82.0191°
Eccentric anomaly
82.02964°
Mean motion
3.81732 °/min
Orbital period
94.31 mins
BSTAR
0.000041154
Loading maneuver chart data...
Computing Atmospheric mass density...
Loading historical data...
Loading historical data...
Loading historical data...
Loading historical data...
Loading historical data...
Loading historical data...
Loading historical data...

Documentation

Showing up to 5 results
|